Location: Huberhof
(49.2050°N, 7.4980°E)
Time: 01:17:59
(UTC+00:00)

SAR-Lupe-1 - Pass Details

Date: 29 October 2020
Orbit: 480 x 485 km, 98.2° (Epoch: 22 November)

Event Time Altitude Azimuth Distance (km) Brightness Sun altitude
Rises 17:21:18 0° 17° (NNE) 2,557 7.5 -11.6°
Reaches altitude 10° 17:23:25 10° 22° (NNE) 1,672 6.5 -12.0°
Maximum altitude 17:26:57 57° 101° (ESE) 578 4.1 -12.5°
Drops below altitude 10° 17:30:28 10° 182° (S) 1,660 6.9 -13.1°
Sets 17:32:32 0° 186° (S) 2,535 7.9 -13.4°
